{"data":{"norad_id":62137,"epoch":"2026-09-19T23:36:54.074880Z","epoch_age_seconds":226380,"freshness":"STALE","line1":"1 62137U 24222Z   26262.98395920  .00016196  00000+0  59668-3 0  9993","line2":"2 62137  43.0013 118.9170 0001917 244.1727 115.8927 15.27585001102611","mean_motion":15.27585001,"eccentricity":0.0001917,"inclination_deg":43.0013,"raan_deg":118.917,"arg_perigee_deg":244.1727,"mean_anomaly_deg":115.8927,"bstar":0.00059668,"rev_number":10261,"period_min":94.26644010365,"perigee_km":481.71883478346,"apogee_km":484.34940779136,"semimajor_km":6861.1711212874,"source":"CELESTRAK","updated_at":"2026-09-22T09:00:49.528703Z"}}